Address 0x4a6e395e019f799f22b274da8897b561df66bded 6

 
Txn Hash Method
Block
From
To
Value [Txn Fee]
0xd1e0330de04ff70566df8238c9fbc5104bfcf96c811baedc55c9889d02bace2c0xf6773c10219667052021-11-30 8:06:505 mins ago0x4a6e395e019f799f22b274da8897b561df66bdedOUT 0x6dba8be55189c73361df6284e485dc1871f9a8710 MATIC0.002468208938
0xdcd53cd92a67b5bf3a1be6e7dd90568fe367ed5d4fb440e6813d20c1a5eb10f5Confirm Transfer219666892021-11-30 8:06:186 mins ago0x4a6e395e019f799f22b274da8897b561df66bdedOUT 0x6dba8be55189c73361df6284e485dc1871f9a8710 MATIC0.002123219878
0x726af5173e48a0c27f5cdc64d62243baee389e3a5080e0c74a18529445a1a4ac0xf6773c10219666172021-11-30 8:03:508 mins ago0x4a6e395e019f799f22b274da8897b561df66bdedOUT 0x6dba8be55189c73361df6284e485dc1871f9a8710 MATIC0.002468684348
0x2daea765f7293b1fd8000f11616659316688e877a7ab729ab58c7a553efd0cb1Confirm Transfer219666082021-11-30 8:03:328 mins ago0x4a6e395e019f799f22b274da8897b561df66bdedOUT 0x6dba8be55189c73361df6284e485dc1871f9a8710 MATIC0.002123219878
0x790aafae06f05c54f2ef052b6727d07af42f364b096041589009f2a7ef13c6130xf6773c10219666072021-11-30 8:03:308 mins ago0x4a6e395e019f799f22b274da8897b561df66bdedOUT 0x6dba8be55189c73361df6284e485dc1871f9a8710 MATIC0.002468684348
0x4951c095090219a2867c3ec379d9754182cf42d8c2c62a9b8ed210269ea834bcConfirm Transfer219665972021-11-30 8:02:599 mins ago0x4a6e395e019f799f22b274da8897b561df66bdedOUT 0x6dba8be55189c73361df6284e485dc1871f9a8710 MATIC0.002123219878
0x16274b2153360f631f5dab88242e1b11bd1609728069c608d2a0a7c81a7162ecConfirm Transfer219665492021-11-30 8:01:0711 mins ago0x4a6e395e019f799f22b274da8897b561df66bdedOUT 0x6dba8be55189c73361df6284e485dc1871f9a8710 MATIC0.002123219878
0x8e041bacaa4efadae6261d06e1556d03015f0652c6db83ffea32ca5e5be2d3a90xf6773c10219657062021-11-30 7:31:5640 mins ago0x4a6e395e019f799f22b274da8897b561df66bdedOUT 0x6dba8be55189c73361df6284e485dc1871f9a8710 MATIC0.002468208938
0x65a95596c3c813e01c5d7bac8f3be837b205104f4e60b22a85d3d80c6009172cConfirm Transfer219656962021-11-30 7:31:3640 mins ago0x4a6e395e019f799f22b274da8897b561df66bdedOUT 0x6dba8be55189c73361df6284e485dc1871f9a8710 MATIC0.002123219878
0x3da9d29f4c846a7edbed4faff2887bc41684767f7686fb58c42c9141ec197dca0xf6773c10219646492021-11-30 6:55:131 hr 17 mins ago0x4a6e395e019f799f22b274da8897b561df66bdedOUT 0x6dba8be55189c73361df6284e485dc1871f9a8710 MATIC0.002468684348
0x89711fc78f7ab936735118dbee0eae0a6d8ff691b66fb5734fef9e5f96a54bcfConfirm Transfer219646142021-11-30 6:54:031 hr 18 mins ago0x4a6e395e019f799f22b274da8897b561df66bdedOUT 0x6dba8be55189c73361df6284e485dc1871f9a8710 MATIC0.002123219878
0x1ce192bc43da34af45baf98774d12e627416c0bf3ac9da61ca720d44943841400xf6773c10219645312021-11-30 6:46:531 hr 25 mins ago0x4a6e395e019f799f22b274da8897b561df66bdedOUT 0x6dba8be55189c73361df6284e485dc1871f9a8710 MATIC0.002468684348
0x2e029fac49d0f51bef169caa5161a1acf7fabd4d99311c475d28aeb9f1dfc7d5Confirm Transfer219645212021-11-30 6:46:331 hr 25 mins ago0x4a6e395e019f799f22b274da8897b561df66bdedOUT 0x6dba8be55189c73361df6284e485dc1871f9a8710 MATIC0.002123219878
0x928dc4b6d55e4a9f52fb437d4e9101323bf541dd8fa6ecf82167600d133970d00xf6773c10219642542021-11-30 6:37:151 hr 35 mins ago0x4a6e395e019f799f22b274da8897b561df66bdedOUT 0x6dba8be55189c73361df6284e485dc1871f9a8710 MATIC0.002468684348
0x3ad5f2759f38bf759cde3d8fd6f3ce01d7fc20537f18e9e47a8dc8163f961970Confirm Transfer219642412021-11-30 6:36:491 hr 35 mins ago0x4a6e395e019f799f22b274da8897b561df66bdedOUT 0x6dba8be55189c73361df6284e485dc1871f9a8710 MATIC0.002123219878
0x6b8cba9b66de8c0d7ea8bc6aca17b3ebd4e9f184a09705b77600b0420d6532350xf6773c10219638062021-11-30 6:21:511 hr 50 mins ago0x4a6e395e019f799f22b274da8897b561df66bdedOUT 0x6dba8be55189c73361df6284e485dc1871f9a8710 MATIC0.002468208938
0xd44a9c22a15ece5567aa34811e3c467454d50499b077c3f8f08b5a262bf59931Confirm Transfer219637952021-11-30 6:21:291 hr 50 mins ago0x4a6e395e019f799f22b274da8897b561df66bdedOUT 0x6dba8be55189c73361df6284e485dc1871f9a8710 MATIC0.002122744468
0x2ab32539e1c17d6adf3b33d101094512ca18ed8358b22e4553ff1443c634ea800xf6773c10219636062021-11-30 6:14:591 hr 57 mins ago0x4a6e395e019f799f22b274da8897b561df66bdedOUT 0x6dba8be55189c73361df6284e485dc1871f9a8710 MATIC0.002468684348
0x0c9def74e6e265ba5addc3095a2115e0cbf764081244705f92852a88e78cedadConfirm Transfer219635962021-11-30 6:14:391 hr 57 mins ago0x4a6e395e019f799f22b274da8897b561df66bdedOUT 0x6dba8be55189c73361df6284e485dc1871f9a8710 MATIC0.002123219878
0x488148c7ad33389e7ce9c542e0e4090a4f15577ad55588cd62a363a7469abba80xf6773c10219635792021-11-30 6:14:011 hr 58 mins ago0x4a6e395e019f799f22b274da8897b561df66bdedOUT 0x6dba8be55189c73361df6284e485dc1871f9a8710 MATIC0.002468684348
0x40a4a62128e3ceb96e078d6ef6a1e079670e473e52f5a166fe38b1b7596f17deConfirm Transfer219635672021-11-30 6:13:371 hr 58 mins ago0x4a6e395e019f799f22b274da8897b561df66bdedOUT 0x6dba8be55189c73361df6284e485dc1871f9a8710 MATIC0.002123219878
0x128288485028824249925ede7be8959876c1834357404069baa2b20aa2963e220xf6773c10219634902021-11-30 6:10:592 hrs 1 min ago0x4a6e395e019f799f22b274da8897b561df66bdedOUT 0x6dba8be55189c73361df6284e485dc1871f9a8710 MATIC0.002468208938
0x2da9a15fd9b747507fba160541f480049fd60f123c61742008e4e30b6699d5b6Confirm Transfer219634702021-11-30 6:10:192 hrs 2 mins ago0x4a6e395e019f799f22b274da8897b561df66bdedOUT 0x6dba8be55189c73361df6284e485dc1871f9a8710 MATIC0.002123219878
0x7efa2b078837a4646cb7aad3dd716e77405e43453b2a5e19846a2f8cbfad8e9d0xf6773c10219633982021-11-30 6:07:512 hrs 4 mins ago0x4a6e395e019f799f22b274da8897b561df66bdedOUT 0x6dba8be55189c73361df6284e485dc1871f9a8710 MATIC0.002468684348
0x1c97409065f646ec9af1403e622ffa0ac40c5e141063b2e6e14b7adfa4b32ca7Confirm Transfer219633792021-11-30 6:07:092 hrs 5 mins ago0x4a6e395e019f799f22b274da8897b561df66bdedOUT 0x6dba8be55189c73361df6284e485dc1871f9a8710 MATIC0.002123219878
[ Download CSV Export 
Parent Txn Hash Block From To Value
Loading

Contract Name:
0 MATIC

Compiler Version
0

Optimization Enabled:
0 MATIC

Other Settings:
-NA-
Block Transaction Gas Used Reward
Age Block Fee Address BC Fee Address Voting Power Jailed Incoming
Block Uncle Number Difficulty Gas Used Reward
Loading
Loading
Make sure to use the "Vote Down" button for any spammy posts, and the "Vote Up" for interesting conversations.